| time (UTC) | temp F | wind direction | speed knots | gust knots | rain 1hr in | rain 24hr in | rain mn in | humidity % | barometer mb |
| 20260502231333 | 58 | 139 | 0.0 | 0.0 | 0.00 | 0.00 | 0.00 | 76 | 1018.3 |
| 20260502230843 | 58 | 139 | 0.0 | 0.0 | 0.00 | 0.00 | 0.00 | 75 | 1018.3 |
| 20260502230333 | 58 | 139 | 0.0 | 0.0 | 0.00 | 0.00 | 0.00 | 74 | 1018.3 |
| 20260502225844 | 59 | 139 | 0.0 | 0.9 | 0.00 | 0.00 | 0.00 | 74 | 1018.3 |
| 20260502225333 | 59 | 139 | 0.0 | 0.9 | 0.00 | 0.00 | 0.00 | 74 | 1018.3 |
| 20260502224844 | 59 | 139 | 0.0 | 0.9 | 0.00 | 0.00 | 0.00 | 74 | 1018.3 |
| 20260502224352 | 59 | 139 | 0.0 | 0.0 | 0.00 | 0.00 | 0.00 | 74 | 1018.3 |
| 20260502223841 | 59 | 139 | 0.0 | 0.0 | 0.00 | 0.00 | 0.00 | 73 | 1018.3 |
| 20260502223351 | 60 | 139 | 0.0 | 0.0 | 0.00 | 0.00 | 0.00 | 72 | 1018.3 |
| 20260502222846 | 60 | 139 | 0.0 | 0.0 | 0.00 | 0.00 | 0.00 | 72 | 1018.3 |
| 20260502222335 | 60 | 139 | 0.0 | 0.0 | 0.00 | 0.00 | 0.00 | 72 | 1018.3 |
| 20260502221845 | 60 | 139 | 0.0 | 0.0 | 0.00 | 0.00 | 0.00 | 71 | 1018.3 |
| 20260502221335 | 61 | 139 | 0.0 | 0.0 | 0.00 | 0.00 | 0.00 | 71 | 1018.3 |
| 20260502220847 | 61 | 139 | 0.0 | 0.9 | 0.00 | 0.00 | 0.00 | 71 | 1018.2 |
| 20260502220336 | 61 | 139 | 0.0 | 0.9 | 0.00 | 0.00 | 0.00 | 70 | 1018.2 |
| 20260502215846 | 61 | 139 | 0.0 | 0.9 | 0.00 | 0.00 | 0.00 | 70 | 1018.2 |
| 20260502215335 | 61 | 139 | 0.0 | 0.9 | 0.00 | 0.00 | 0.00 | 69 | 1018.2 |
| 20260502214847 | 62 | 139 | 0.0 | 0.9 | 0.00 | 0.00 | 0.00 | 68 | 1018.1 |
| 20260502214340 | 62 | 139 | 0.0 | 0.0 | 0.00 | 0.00 | 0.00 | 68 | 1018.1 |
| 20260502213851 | 62 | 139 | 0.0 | 0.0 | 0.00 | 0.00 | 0.00 | 68 | 1018.1 |
| 20260502213340 | 62 | 139 | 0.0 | 0.0 | 0.00 | 0.00 | 0.00 | 67 | 1018.1 |
| 20260502212849 | 63 | 139 | 0.0 | 0.0 | 0.00 | 0.00 | 0.00 | 66 | 1018.1 |
| 20260502212338 | 63 | 139 | 0.0 | 0.0 | 0.00 | 0.00 | 0.00 | 66 | 1018.0 |
| 20260502211848 | 63 | 139 | 0.0 | 0.0 | 0.00 | 0.00 | 0.00 | 66 | 1018.0 |
| 20260502211338 | 63 | 139 | 0.0 | 0.0 | 0.00 | 0.00 | 0.00 | 65 | 1018.1 |
| 20260502210847 | 64 | 139 | 0.0 | 0.0 | 0.00 | 0.00 | 0.00 | 64 | 1018.1 |
| 20260502210342 | 64 | 139 | 0.0 | 0.0 | 0.00 | 0.00 | 0.00 | 62 | 1018.1 |
| 20260502205851 | 65 | 139 | 0.0 | 0.0 | 0.00 | 0.00 | 0.00 | 61 | 1018.1 |
| 20260502205342 | 65 | 139 | 0.0 | 0.0 | 0.00 | 0.00 | 0.00 | 60 | 1018.0 |
| 20260502204851 | 65 | 139 | 0.0 | 0.0 | 0.00 | 0.00 | 0.00 | 59 | 1017.9 |
| 20260502204341 | 65 | 139 | 0.0 | 0.0 | 0.00 | 0.00 | 0.00 | 58 | 1017.9 |
| 20260502203850 | 65 | 139 | 0.0 | 0.0 | 0.00 | 0.00 | 0.00 | 58 | 1018.0 |
| 20260502203338 | 65 | 139 | 0.0 | 0.0 | 0.00 | 0.00 | 0.00 | 58 | 1018.1 |
| 20260502202848 | 65 | 139 | 0.0 | 0.0 | 0.00 | 0.00 | 0.00 | 59 | 1018.0 |
| 20260502202338 | 65 | 139 | 0.0 | 0.0 | 0.00 | 0.00 | 0.00 | 59 | 1018.0 |
| 20260502201833 | 65 | 139 | 0.0 | 0.0 | 0.00 | 0.00 | 0.00 | 59 | 1018.1 |
| 20260502201343 | 65 | 139 | 0.0 | 0.9 | 0.00 | 0.00 | 0.00 | 60 | 1018.0 |
| 20260502200853 | 65 | 139 | 0.0 | 0.9 | 0.00 | 0.00 | 0.00 | 60 | 1018.0 |
| 20260502200343 | 65 | 139 | 0.0 | 1.7 | 0.00 | 0.00 | 0.00 | 59 | 1018.1 |
| 20260502195852 | 66 | 139 | 0.0 | 1.7 | 0.00 | 0.00 | 0.00 | 57 | 1018.1 |
| 20260502194838 | 67 | 139 | 0.0 | 0.0 | 0.00 | 0.00 | 0.00 | 54 | 1017.9 |
| 20260502194347 | 67 | 139 | 0.0 | 0.0 | 0.00 | 0.00 | 0.00 | 54 | 1017.9 |
| 20260502193841 | 68 | 139 | 0.0 | 0.0 | 0.00 | 0.00 | 0.00 | 54 | 1017.9 |
| 20260502193351 | 68 | 139 | 0.0 | 0.0 | 0.00 | 0.00 | 0.00 | 53 | 1017.9 |
| 20260502192840 | 69 | 139 | 0.0 | 2.6 | 0.00 | 0.00 | 0.00 | 53 | 1017.9 |
| 20260502192349 | 69 | 139 | 0.0 | 4.3 | 0.00 | 0.00 | 0.00 | 49 | 1017.8 |
| 20260502191351 | 70 | 146 | 0.9 | 2.6 | 0.00 | 0.00 | 0.00 | 50 | 1017.7 |
| 20260502190841 | 70 | 302 | 0.0 | 0.0 | 0.00 | 0.00 | 0.00 | 49 | 1017.7 |
| 20260502190351 | 71 | 302 | 0.0 | 1.7 | 0.00 | 0.00 | 0.00 | 47 | 1017.6 |
| 20260502185841 | 71 | 302 | 0.0 | 3.5 | 0.00 | 0.00 | 0.00 | 45 | 1017.6 |
| 20260502185334 | 71 | 158 | 0.9 | 3.5 | 0.00 | 0.00 | 0.00 | 45 | 1017.5 |
| 20260502184847 | 72 | 232 | 0.0 | 2.6 | 0.00 | 0.00 | 0.00 | 45 | 1017.6 |
| 20260502184335 | 72 | 156 | 0.9 | 2.6 | 0.00 | 0.00 | 0.00 | 44 | 1017.5 |
| 20260502183847 | 72 | 189 | 0.0 | 0.9 | 0.00 | 0.00 | 0.00 | 44 | 1017.6 |
| 20260502183337 | 73 | 127 | 0.0 | 1.7 | 0.00 | 0.00 | 0.00 | 43 | 1017.4 |
| 20260502182847 | 73 | 150 | 0.0 | 1.7 | 0.00 | 0.00 | 0.00 | 43 | 1017.5 |
| 20260502182336 | 74 | 191 | 0.0 | 1.7 | 0.00 | 0.00 | 0.00 | 42 | 1017.4 |
| 20260502181847 | 74 | 181 | 0.0 | 1.7 | 0.00 | 0.00 | 0.00 | 42 | 1017.4 |
| 20260502181342 | 74 | 150 | 0.0 | 2.6 | 0.00 | 0.00 | 0.00 | 41 | 1017.5 |
| 20260502180833 | 75 | 88 | 0.0 | 2.6 | 0.00 | 0.00 | 0.00 | 40 | 1017.5 |
| 20260502180344 | 75 | 136 | 0.9 | 2.6 | 0.00 | 0.00 | 0.00 | 40 | 1017.5 |
| 20260502170342 | 82 | 70 | 0.0 | 0.9 | 0.00 | 0.00 | 0.00 | 34 | 1017.4 |
| 20260502164341 | 81 | 330 | 0.0 | 0.9 | 0.00 | 0.00 | 0.00 | 33 | 1017.5 |
| 20260502163341 | 82 | 330 | 0.0 | 0.9 | 0.00 | 0.00 | 0.00 | 32 | 1017.6 |
| 20260502162851 | 82 | 330 | 0.0 | 1.7 | 0.00 | 0.00 | 0.00 | 32 | 1017.6 |
| 20260502161851 | 83 | 330 | 0.0 | 0.9 | 0.00 | 0.00 | 0.00 | 31 | 1017.7 |
| 20260502161341 | 82 | 330 | 0.0 | 2.6 | 0.00 | 0.00 | 0.00 | 32 | 1017.8 |
| 20260502160849 | 83 | 330 | 0.0 | 2.6 | 0.00 | 0.00 | 0.00 | 32 | 1017.9 |
| 20260502160401 | 84 | 302 | 0.0 | 0.9 | 0.00 | 0.00 | 0.00 | 30 | 1018.0 |
| 20260502151842 | 86 | 247 | 0.0 | 0.9 | 0.00 | 0.00 | 0.00 | 31 | 1018.3 |
| 20260502151348 | 85 | 167 | 0.0 | 0.9 | 0.00 | 0.00 | 0.00 | 31 | 1018.3 |
| 20260502150841 | 84 | 169 | 0.0 | 2.6 | 0.00 | 0.00 | 0.00 | 32 | 1018.4 |
| 20260502150351 | 83 | 145 | 0.0 | 2.6 | 0.00 | 0.00 | 0.00 | 34 | 1018.4 |
| 20260502130350 | 79 | 326 | 0.9 | 2.6 | 0.00 | 0.00 | 0.00 | 36 | 1020.2 |
| 20260502123339 | 77 | 271 | 0.9 | 3.5 | 0.00 | 0.00 | 0.00 | 39 | 1020.7 |
| 20260502122849 | 77 | 307 | 0.9 | 3.5 | 0.00 | 0.00 | 0.00 | 40 | 1020.7 |
| 20260502122339 | 77 | 302 | 0.9 | 2.6 | 0.00 | 0.00 | 0.00 | 41 | 1020.8 |
| 20260502121849 | 78 | 141 | 0.0 | 0.9 | 0.00 | 0.00 | 0.00 | 41 | 1020.8 |
| 20260502121338 | 77 | 318 | 0.0 | 0.9 | 0.00 | 0.00 | 0.00 | 41 | 1020.9 |
| 20260502120833 | 77 | 310 | 0.0 | 4.3 | 0.00 | 0.00 | 0.00 | 43 | 1020.9 |
| 20260502120344 | 76 | 310 | 0.0 | 5.2 | 0.00 | 0.00 | 0.00 | 43 | 1021.0 |
| 20260502115852 | 77 | 343 | 0.9 | 5.2 | 0.00 | 0.00 | 0.00 | 42 | 1021.2 |
| 20260502115338 | 78 | 237 | 0.0 | 1.7 | 0.00 | 0.00 | 0.00 | 44 | 1021.2 |
| 20260502114848 | 77 | 274 | 0.0 | 0.9 | 0.00 | 0.00 | 0.00 | 45 | 1021.3 |
| 20260502114340 | 76 | 312 | 0.0 | 1.7 | 0.00 | 0.00 | 0.00 | 44 | 1021.4 |
| 20260502113850 | 75 | 155 | 0.0 | 5.2 | 0.00 | 0.00 | 0.00 | 46 | 1021.4 |
| 20260502113340 | 74 | 317 | 1.7 | 5.2 | 0.00 | 0.00 | 0.00 | 47 | 1021.5 |
| 20260502112834 | 74 | 286 | 0.0 | 4.3 | 0.00 | 0.00 | 0.00 | 46 | 1021.5 |
| 20260502112343 | 75 | 349 | 0.0 | 2.6 | 0.00 | 0.00 | 0.00 | 48 | 1021.7 |
| 20260502111853 | 75 | 256 | 0.0 | 2.6 | 0.00 | 0.00 | 0.00 | 46 | 1021.7 |
| 20260502111342 | 75 | 316 | 0.0 | 3.5 | 0.00 | 0.00 | 0.00 | 49 | 1021.9 |
| 20260502110833 | 73 | 316 | 0.0 | 3.5 | 0.00 | 0.00 | 0.00 | 50 | 1021.9 |
| 20260502110346 | 72 | 298 | 0.9 | 2.6 | 0.00 | 0.00 | 0.00 | 52 | 1022.0 |
| 20260502105836 | 72 | 321 | 0.0 | 2.6 | 0.00 | 0.00 | 0.00 | 50 | 1022.1 |
| 20260502105347 | 72 | 292 | 0.9 | 2.6 | 0.00 | 0.00 | 0.00 | 48 | 1022.2 |
| 20260502104836 | 73 | 319 | 0.9 | 3.5 | 0.00 | 0.00 | 0.00 | 49 | 1022.2 |
| 20260502104350 | 72 | 317 | 0.0 | 7.8 | 0.00 | 0.00 | 0.00 | 52 | 1022.3 |
| 20260502103839 | 72 | 336 | 3.5 | 7.8 | 0.00 | 0.00 | 0.00 | 50 | 1022.3 |
| 20260502103349 | 72 | 285 | 0.0 | 1.7 | 0.00 | 0.00 | 0.00 | 51 | 1022.5 |
| 20260502102839 | 71 | 205 | 0.0 | 2.6 | 0.00 | 0.00 | 0.00 | 50 | 1022.5 |
| 20260502101845 | 71 | 318 | 0.9 | 2.6 | 0.00 | 0.00 | 0.00 | 53 | 1022.7 |
| 20260502101335 | 70 | 265 | 0.0 | 3.5 | 0.00 | 0.00 | 0.00 | 52 | 1022.8 |
| 20260502100845 | 69 | 300 | 0.9 | 3.5 | 0.00 | 0.00 | 0.00 | 54 | 1022.8 |
| 20260502100339 | 69 | 332 | 0.9 | 3.5 | 0.00 | 0.00 | 0.00 | 53 | 1022.9 |
| 20260502091341 | 65 | 296 | 0.0 | 1.7 | 0.00 | 0.00 | 0.00 | 61 | 1023.5 |
| 20260502090850 | 64 | 314 | 0.0 | 2.6 | 0.00 | 0.00 | 0.00 | 62 | 1023.6 |
| 20260502090340 | 63 | 278 | 0.0 | 2.6 | 0.00 | 0.00 | 0.00 | 62 | 1023.6 |
| 20260502071340 | 54 | 140 | 0.0 | 0.9 | 0.00 | 0.00 | 0.00 | 76 | 1024.3 |
| 20260502070850 | 53 | 140 | 0.0 | 0.9 | 0.00 | 0.00 | 0.00 | 76 | 1024.3 |
| 20260502070344 | 53 | 140 | 0.0 | 0.9 | 0.00 | 0.00 | 0.00 | 77 | 1024.3 |
| 20260502065833 | 52 | 140 | 0.0 | 0.9 | 0.00 | 0.00 | 0.00 | 78 | 1024.3 |
| 20260502065344 | 52 | 140 | 0.0 | 0.9 | 0.00 | 0.00 | 0.00 | 79 | 1024.4 |
| 20260502064833 | 51 | 140 | 0.0 | 0.9 | 0.00 | 0.00 | 0.00 | 80 | 1024.4 |
| 20260502064343 | 51 | 140 | 0.0 | 0.9 | 0.00 | 0.00 | 0.00 | 81 | 1024.4 |
| 20260502063833 | 50 | 140 | 0.0 | 0.0 | 0.00 | 0.00 | 0.00 | 82 | 1024.4 |
| 20260502063344 | 49 | 140 | 0.0 | 0.0 | 0.00 | 0.00 | 0.00 | 83 | 1024.4 |
| 20260502062852 | 49 | 140 | 0.0 | 0.0 | 0.00 | 0.00 | 0.00 | 84 | 1024.4 |
| 20260502062344 | 48 | 140 | 0.0 | 0.0 | 0.00 | 0.00 | 0.00 | 84 | 1024.4 |
| 20260502061835 | 48 | 140 | 0.0 | 0.0 | 0.00 | 0.00 | 0.00 | 86 | 1024.4 |
| 20260502061348 | 47 | 140 | 0.0 | 0.0 | 0.00 | 0.00 | 0.00 | 86 | 1024.4 |
| 20260502060839 | 47 | 140 | 0.0 | 0.0 | 0.00 | 0.00 | 0.00 | 87 | 1024.4 |
| 20260502060348 | 47 | 140 | 0.0 | 0.0 | 0.00 | 0.00 | 0.00 | 87 | 1024.4 |
| 20260502055838 | 47 | 140 | 0.0 | 0.0 | 0.00 | 0.00 | 0.00 | 87 | 1024.5 |
| 20260502055348 | 46 | 140 | 0.0 | 0.0 | 0.00 | 0.00 | 0.00 | 87 | 1024.4 |
| 20260502054839 | 46 | 140 | 0.0 | 0.0 | 0.00 | 0.00 | 0.00 | 87 | 1024.4 |
| 20260502054348 | 46 | 140 | 0.0 | 0.0 | 0.00 | 0.00 | 0.00 | 87 | 1024.4 |
| 20260502053842 | 46 | 140 | 0.0 | 0.0 | 0.00 | 0.00 | 0.00 | 87 | 1024.4 |
| 20260502053352 | 45 | 140 | 0.0 | 0.0 | 0.00 | 0.00 | 0.00 | 87 | 1024.4 |
| 20260502052842 | 45 | 140 | 0.0 | 0.0 | 0.00 | 0.00 | 0.00 | 87 | 1024.4 |
| 20260502052333 | 45 | 140 | 0.0 | 0.0 | 0.00 | 0.00 | 0.00 | 87 | 1024.4 |
| 20260502051842 | 45 | 140 | 0.0 | 0.0 | 0.00 | 0.00 | 0.00 | 87 | 1024.4 |
| 20260502051352 | 45 | 140 | 0.0 | 0.0 | 0.00 | 0.00 | 0.00 | 88 | 1024.3 |
| 20260502050923 | 45 | 140 | 0.0 | 0.0 | 0.00 | 0.00 | 0.00 | 87 | 1024.3 |
| 20260502050349 | 45 | 140 | 0.0 | 0.0 | 0.00 | 0.00 | 0.00 | 88 | 1024.2 |
| 20260502045838 | 45 | 140 | 0.0 | 0.0 | 0.00 | 0.00 | 0.00 | 88 | 1024.2 |
| 20260502045348 | 44 | 140 | 0.0 | 0.0 | 0.00 | 0.00 | 0.00 | 88 | 1024.3 |
| 20260502044843 | 44 | 140 | 0.0 | 0.0 | 0.00 | 0.00 | 0.00 | 88 | 1024.2 |
| 20260502044334 | 44 | 140 | 0.0 | 0.0 | 0.00 | 0.00 | 0.00 | 88 | 1024.2 |
| 20260502043846 | 44 | 140 | 0.0 | 0.0 | 0.00 | 0.00 | 0.00 | 88 | 1024.2 |
| 20260502043334 | 44 | 140 | 0.0 | 0.0 | 0.00 | 0.00 | 0.00 | 88 | 1024.2 |
| 20260502042845 | 44 | 140 | 0.0 | 0.9 | 0.00 | 0.00 | 0.00 | 88 | 1024.1 |
| 20260502042334 | 44 | 140 | 0.0 | 0.9 | 0.00 | 0.00 | 0.00 | 88 | 1024.2 |
| 20260502041845 | 44 | 140 | 0.0 | 0.0 | 0.00 | 0.00 | 0.00 | 87 | 1024.1 |
| 20260502041335 | 44 | 140 | 0.0 | 0.0 | 0.00 | 0.00 | 0.00 | 87 | 1024.1 |
| 20260502040845 | 44 | 140 | 0.0 | 0.0 | 0.00 | 0.00 | 0.00 | 87 | 1024.2 |
| 20260502040340 | 45 | 140 | 0.0 | 0.9 | 0.00 | 0.00 | 0.00 | 87 | 1024.2 |
| 20260502035851 | 45 | 140 | 0.0 | 0.9 | 0.00 | 0.00 | 0.00 | 87 | 1024.1 |
| 20260502035340 | 45 | 140 | 0.0 | 0.0 | 0.00 | 0.00 | 0.00 | 87 | 1024.1 |
| 20260502034850 | 45 | 140 | 0.0 | 0.0 | 0.00 | 0.00 | 0.00 | 86 | 1024.0 |
| 20260502034339 | 45 | 140 | 0.0 | 0.0 | 0.00 | 0.00 | 0.00 | 86 | 1024.0 |
| 20260502033849 | 45 | 140 | 0.0 | 0.0 | 0.00 | 0.00 | 0.00 | 85 | 1024.1 |
| 20260502033340 | 45 | 140 | 0.0 | 0.0 | 0.00 | 0.00 | 0.00 | 85 | 1024.1 |
| 20260502032849 | 45 | 140 | 0.0 | 0.0 | 0.00 | 0.00 | 0.00 | 86 | 1024.1 |
| 20260502032343 | 45 | 140 | 0.0 | 0.0 | 0.00 | 0.00 | 0.00 | 85 | 1024.1 |
| 20260502031853 | 45 | 140 | 0.0 | 0.0 | 0.00 | 0.00 | 0.00 | 85 | 1024.0 |
| 20260502031342 | 46 | 140 | 0.0 | 0.0 | 0.00 | 0.00 | 0.00 | 85 | 1024.0 |
| 20260502030833 | 46 | 140 | 0.0 | 0.0 | 0.00 | 0.00 | 0.00 | 85 | 1024.0 |
| 20260502030344 | 46 | 140 | 0.0 | 0.9 | 0.00 | 0.00 | 0.00 | 85 | 1024.0 |
| 20260502025852 | 45 | 140 | 0.0 | 0.9 | 0.00 | 0.00 | 0.00 | 86 | 1024.0 |
| 20260502025341 | 45 | 140 | 0.0 | 0.9 | 0.00 | 0.00 | 0.00 | 85 | 1024.0 |
| 20260502024850 | 45 | 140 | 0.0 | 0.9 | 0.00 | 0.00 | 0.00 | 85 | 1024.1 |
| 20260502024339 | 45 | 140 | 0.0 | 0.0 | 0.00 | 0.00 | 0.00 | 85 | 1024.1 |
| 20260502023833 | 46 | 140 | 0.0 | 0.0 | 0.00 | 0.00 | 0.00 | 85 | 1024.2 |
| 20260502023344 | 45 | 140 | 0.0 | 0.0 | 0.00 | 0.00 | 0.00 | 85 | 1024.1 |
| 20260502022834 | 45 | 140 | 0.0 | 0.0 | 0.00 | 0.00 | 0.00 | 84 | 1024.2 |
| 20260502022347 | 46 | 140 | 0.0 | 0.0 | 0.00 | 0.00 | 0.00 | 84 | 1024.1 |
| 20260502021835 | 46 | 140 | 0.0 | 0.0 | 0.00 | 0.00 | 0.00 | 85 | 1024.2 |
| 20260502021345 | 46 | 140 | 0.0 | 0.0 | 0.00 | 0.00 | 0.00 | 85 | 1024.2 |
| 20260502020836 | 46 | 140 | 0.0 | 0.0 | 0.00 | 0.00 | 0.00 | 84 | 1024.1 |
| 20260502020346 | 46 | 140 | 0.0 | 0.0 | 0.00 | 0.00 | 0.00 | 84 | 1024.2 |
| 20260502015840 | 46 | 140 | 0.0 | 0.0 | 0.00 | 0.00 | 0.00 | 83 | 1024.1 |
| 20260502015349 | 46 | 140 | 0.0 | 0.0 | 0.00 | 0.00 | 0.00 | 83 | 1024.1 |
| 20260502014839 | 46 | 140 | 0.0 | 0.0 | 0.00 | 0.00 | 0.00 | 83 | 1024.1 |
| 20260502014350 | 47 | 140 | 0.0 | 0.0 | 0.00 | 0.00 | 0.00 | 83 | 1024.1 |
| 20260502013840 | 47 | 140 | 0.0 | 0.0 | 0.00 | 0.00 | 0.00 | 82 | 1024.1 |
| 20260502013350 | 47 | 140 | 0.0 | 0.0 | 0.00 | 0.00 | 0.00 | 82 | 1024.1 |
| 20260502012840 | 47 | 140 | 0.0 | 0.0 | 0.00 | 0.00 | 0.00 | 82 | 1024.2 |
| 20260502012349 | 47 | 140 | 0.0 | 0.0 | 0.00 | 0.00 | 0.00 | 81 | 1024.1 |
| 20260502011841 | 48 | 140 | 0.0 | 0.0 | 0.00 | 0.00 | 0.00 | 80 | 1024.0 |
| 20260502011334 | 48 | 140 | 0.0 | 0.0 | 0.00 | 0.00 | 0.00 | 80 | 1024.0 |
| 20260502010843 | 48 | 140 | 0.0 | 0.0 | 0.00 | 0.00 | 0.00 | 80 | 1024.0 |
| 20260502005843 | 48 | 140 | 0.0 | 0.0 | 0.00 | 0.00 | 0.00 | 81 | 1024.0 |
| 20260502005352 | 48 | 140 | 0.0 | 0.0 | 0.00 | 0.00 | 0.00 | 80 | 1024.0 |
| 20260502004841 | 48 | 140 | 0.0 | 0.0 | 0.00 | 0.00 | 0.00 | 80 | 1024.1 |
| 20260502004350 | 48 | 140 | 0.0 | 0.0 | 0.00 | 0.00 | 0.00 | 79 | 1024.1 |
| 20260502003841 | 48 | 140 | 0.0 | 0.0 | 0.00 | 0.00 | 0.00 | 79 | 1024.0 |
| 20260502003334 | 48 | 140 | 0.0 | 0.0 | 0.00 | 0.00 | 0.00 | 79 | 1024.0 |
| 20260502002845 | 48 | 140 | 0.0 | 0.0 | 0.00 | 0.00 | 0.00 | 79 | 1024.0 |
| 20260502002335 | 49 | 140 | 0.0 | 0.0 | 0.00 | 0.00 | 0.00 | 79 | 1024.0 |
| 20260502001844 | 48 | 140 | 0.0 | 0.0 | 0.00 | 0.00 | 0.00 | 78 | 1024.0 |
| 20260502001334 | 49 | 140 | 0.0 | 0.0 | 0.00 | 0.00 | 0.00 | 78 | 1024.1 |
| 20260502000845 | 49 | 140 | 0.0 | 0.0 | 0.00 | 0.00 | 0.00 | 76 | 1024.1 |
| 20260502000333 | 49 | 140 | 0.0 | 0.0 | 0.00 | 0.00 | 0.00 | 76 | 1024.1 |
| 20260501235340 | 50 | 140 | 0.0 | 0.0 | 0.00 | 0.00 | 0.00 | 75 | 1024.2 |
| 20260501234834 | 50 | 140 | 0.0 | 0.0 | 0.00 | 0.00 | 0.00 | 75 | 1024.2 |
| 20260501234344 | 50 | 140 | 0.0 | 0.0 | 0.00 | 0.00 | 0.00 | 75 | 1024.1 |
| 20260501233852 | 50 | 140 | 0.0 | 0.0 | 0.00 | 0.00 | 0.00 | 75 | 1024.0 |
| 20260501233343 | 50 | 140 | 0.0 | 0.0 | 0.00 | 0.00 | 0.00 | 75 | 1024.0 |
| 20260501232832 | 50 | 140 | 0.0 | 0.0 | 0.00 | 0.00 | 0.00 | 74 | 1024.1 |
| 20260501232343 | 50 | 140 | 0.0 | 0.0 | 0.00 | 0.00 | 0.00 | 74 | 1024.0 |